Simultaneous Nadir Overpasses (SNOs) Predictions

Prediction of SNOs between NOAA-19 and NPP Satellite Orbit:

Table of predicted SNOs for the next 14.0 days since TLE Epoch: 8/20/2022
Index Date (NOAA-19) Time (NOAA-19) Lat,Lon (NOAA-19) SZA (NOAA-19 ) Date (NPP) Time (NPP) Lat,Lon (NPP) SZA (NPP ) Distance(km) Time Diff (sec)
1 08/23/2022 09:00:03 76.12, 24.65 65.65 08/23/2022 09:01:09 76.17, 27.72 65.40 81.92 66
2 08/23/2022 09:50:59 -76.56,-166.42 114.08 08/23/2022 09:52:02 -76.56,-166.40 114.10 0.47 63
3 08/23/2022 10:41:53 76.55, 0.82 65.93 08/23/2022 10:42:48 76.58, 0.85 65.93 3.10 55
4 08/23/2022 11:32:58 -76.59, 168.22 114.04 08/23/2022 11:33:32 -76.56, 168.22 114.08 3.41 34
5 08/23/2022 12:23:52 76.58, -24.54 65.97 08/23/2022 12:24:18 76.58, -24.53 65.96 0.56 26
6 08/23/2022 13:14:58 -76.58, 142.69 114.02 08/23/2022 13:15:03 -76.61, 142.66 114.00 2.92 5
7 08/23/2022 14:05:51 76.62, -49.90 66.02 08/23/2022 14:05:48 76.58, -49.92 65.98 4.01 3
8 08/23/2022 14:56:57 -76.62, 117.33 113.98 08/23/2022 14:56:33 -76.61, 117.28 113.97 1.50 24
9 08/23/2022 15:47:51 76.61, -75.43 66.03 08/23/2022 15:47:19 76.63, -75.47 66.07 2.50 32
10 08/23/2022 16:38:57 -76.61, 91.80 113.96 08/23/2022 16:38:03 -76.61, 91.89 113.94 2.58 54
11 08/23/2022 17:29:50 76.64,-100.79 66.08 08/23/2022 17:28:49 76.63,-100.86 66.09 2.08 61
12 08/23/2022 18:20:49 -76.94, 67.71 113.73 08/23/2022 18:19:40 -76.93, 65.30 113.53 60.64 69



Historial Predications of SNOs between NOAA-19 and NPP
